Sheldon
Sunday 2:35 PM
Temperature73° (73°/52°)
Dew Point55°
Relative Humidity53
%
Visibility10
mi
Pressure1020.3
mb
Wind DirectionSSE
150°
Wind Speed23
mph
(G30)
Precipitation Today0.00"

Last 30 Observations

Time PresWx Temp DP Feels RH% Vsby Pressure Ceiling Direction Speed 1h Precip
2:35 PM 73° 55° 53
%
10
mi
1020.3
mb
7,500
ft
SSE
150°
23
mph
(G30)
0.00"
2:15 PM 72° 55° 57
%
10
mi
1020.7
mb
SSE
150°
22
mph
(G30)
0.00"
1:55 PM 70° 54° 56
%
10
mi
1021.0
mb
7,500
ft
SSE
150°
23
mph
0.00"
1:35 PM 70° 54° 56
%
10
mi
1021.7
mb
7,000
ft
SSE
160°
22
mph
0.00"
1:15 PM 68° 54° 60
%
10
mi
1022.0
mb
6,500
ft
SSE
160°
20
mph
(G28)
0.00"
12:55 PM 66° 54° 64
%
10
mi
1022.4
mb
6,500
ft
SSE
150°
21
mph
0.00"
12:35 PM 66° 54° 64
%
10
mi
1022.7
mb
7,000
ft
0.00"
12:15 PM 66° 54° 64
%
10
mi
1022.7
mb
7,000
ft
SSE
150°
20
mph
(G29)
0.00"
11:55 AM 66° 54° 64
%
10
mi
1023.0
mb
6,000
ft
SSE
150°
21
mph
0.00"
11:35 AM 66° 54° 64
%
10
mi
1023.4
mb
6,000
ft
0.00"
11:15 AM 64° 54° 68
%
10
mi
1023.4
mb
4,800
ft
SE
140°
17
mph
0.00"
10:55 AM 64° 54° 68
%
9
mi
1023.7
mb
5,000
ft
SE
140°
16
mph
0.00"
10:35 AM 64° 52° 64
%
10
mi
1024.1
mb
4,900
ft
SE
140°
14
mph
(G22)
0.00"
10:15 AM 64° 52° 64
%
10
mi
1023.7
mb
5,000
ft
SE
140°
14
mph
0.00"
9:55 AM 64° 52° 64
%
10
mi
1024.1
mb
5,000
ft
SE
140°
15
mph
0.00"
9:35 AM 64° 52° 64
%
10
mi
1024.1
mb
5,000
ft
SE
140°
13
mph
0.00"
9:15 AM 64° 54° 68
%
10
mi
1024.1
mb
5,000
ft
SE
130°
15
mph
0.00"
8:55 AM 63° 54° 72
%
10
mi
1024.1
mb
5,500
ft
SE
130°
11
mph
0.00"
8:35 AM 63° 54° 72
%
10
mi
1024.1
mb
5,500
ft
ESE
110°
10
mph
0.00"
8:15 AM 63° 54° 72
%
1023.7
mb
5,500
ft
ESE
120°
9
mph
0.00"
7:55 AM 61° 54° 77
%
10
mi
1023.7
mb
9,000
ft
ESE
110°
9
mph
0.00"
7:35 AM 59° 54° 82
%
10
mi
1023.7
mb
7,000
ft
ESE
120°
8
mph
0.00"
7:15 AM 59° 54° 82
%
10
mi
1023.7
mb
6,000
ft
ESE
110°
6
mph
0.00"
6:55 AM 59° 54° 82
%
10
mi
1023.7
mb
6,000
ft
E
100°
6
mph
0.00"
6:35 AM 59° 54° 82
%
10
mi
1023.7
mb
6,000
ft
E
90°
7
mph
0.00"
6:15 AM 57° 54° 88
%
10
mi
1023.4
mb
6,000
ft
ENE
70°
6
mph
0.00"
5:55 AM 57° 54° 88
%
10
mi
1023.0
mb
7,500
ft
E
90°
6
mph
0.00"
5:35 AM 55° 52° 88
%
10
mi
1023.0
mb
6,000
ft
Calm 0.00"
5:15 AM 54° 52° 94
%
10
mi
1023.0
mb
6,000
ft
Calm 0.00"
4:55 AM 52° 52° 100
%
10
mi
1023.0
mb
6,500
ft
Calm 0.00"